Clarksville, TN

3:00 AM CST on November 20, 2019 (GMT -0600)
Outlaw

Weather History for KCKV - October, 2019

Change the Weather History Date:

Sunday, October 20, 2019

  Actual Average Record
Temperature  
Mean Temperature 66 °F 58 °F  
Max Temperature 75 °F 70 °F 89 °F (1953)
Min Temperature 57 °F 45 °F 29 °F (1972)
Degree Days  
Heating Degree Days 0    
Month to date heating degree days 102  
Since 1 July heating degree days 102  
Cooling Degree Days 2    
Month to date cooling degree days 67  
Year to date cooling degree days 1787  
Growing Degree Days 16 (Base 50)    
Moisture  
Dew Point 57 °F    
Average Humidity 81    
Maximum Humidity 100    
Minimum Humidity 46    
Precipitation  
Precipitation 0.00 in 0.14 in 1.15 in (1985)
Month to date precipitation 4.78 2.61  
Year to date precipitation 45.19 39.27  
Sea Level Pressure  
Sea Level Pressure 29.87 in    
Wind  
Wind Speed 2 mph ()    
Max Wind Speed 10 mph    
Max Gust Speed 14 mph    
Visibility 9.8 miles    
Events      
T = Trace of Precipitation, MM = Missing Value Source: Averaged Metar Reports

Daily Weather History Graph

Daily Weather History Graph

Search for Another Location

Airport or City:

Astronomy

Oct. 20, 2019 Rise Set
Actual Time 7:01 AM CDT 6:06 PM CDT
Civil Twilight 6:35 AM CDT 6:33 PM CDT
Nautical Twilight 6:05 AM CDT 7:03 PM CDT
Astronomical Twilight 5:35 AM CDT 7:33 PM CDT
Moon 11:21 PM CDT 1:22 PM CDT
Length of Visible Light 11h 58m
Length of Day
11h 05m
Waning Gibbous, 59% of the Moon is Illuminated
Oct 20
Waning Gibbous
Oct 21
Last Quarter
Oct 27
New
Nov 4
First Quarter
Nov 12
Full

Hourly Weather History & Observations

Time (CDT) Temp. Dew Point Humidity Pressure Visibility Wind Dir Wind Speed Gust Speed Precip Events Conditions
12:52 AM 62.1 °F 59.0 °F 90% 29.81 in 10.0 mi Calm Calm - N/A   Overcast
1:14 AM 61.0 °F 59.0 °F 93% 29.81 in 5.0 mi Calm Calm - N/A   Overcast
1:52 AM 61.0 °F 59.0 °F 93% 29.81 in 9.0 mi Calm Calm - N/A   Overcast
2:52 AM 61.0 °F 60.1 °F 97% 29.81 in 10.0 mi Calm Calm - N/A   Overcast
3:35 AM 61.0 °F 59.0 °F 93% 29.83 in 10.0 mi West 4.6 mph - N/A   Overcast
3:43 AM 61.0 °F 59.0 °F 93% 29.82 in 10.0 mi West 3.5 mph - N/A   Overcast
3:52 AM 61.0 °F 59.0 °F 93% 29.81 in 10.0 mi West 3.5 mph - N/A   Overcast
4:52 AM 60.1 °F 59.0 °F 96% 29.83 in 10.0 mi Calm Calm - N/A   Overcast
5:23 AM 60.1 °F 59.0 °F 96% 29.85 in 10.0 mi West 3.5 mph - N/A   Overcast
5:31 AM 60.1 °F 59.0 °F 96% 29.86 in 10.0 mi Calm Calm - N/A   Overcast
5:39 AM 60.1 °F 59.0 °F 96% 29.86 in 10.0 mi WNW 3.5 mph - N/A   Overcast
5:52 AM 60.1 °F 59.0 °F 96% 29.86 in 10.0 mi WNW 3.5 mph - N/A   Overcast
6:15 AM 60.1 °F 59.0 °F 96% 29.87 in 10.0 mi WNW 3.5 mph - N/A   Overcast
6:44 AM 60.1 °F 59.0 °F 96% 29.88 in 10.0 mi WSW 3.5 mph - N/A   Overcast
6:52 AM 60.1 °F 59.0 °F 96% 29.88 in 10.0 mi West 3.5 mph - N/A   Overcast
7:52 AM 59.0 °F 59.0 °F 100% 29.89 in 10.0 mi WSW 3.5 mph - N/A   Mostly Cloudy
8:52 AM 63.0 °F 57.0 °F 81% 29.90 in 10.0 mi Calm Calm - N/A   Scattered Clouds
9:52 AM 64.9 °F 57.0 °F 75% 29.92 in 10.0 mi West 4.6 mph - N/A   Mostly Cloudy
10:29 AM 64.9 °F 57.0 °F 75% 29.92 in 10.0 mi South 4.6 mph - N/A   Scattered Clouds
10:52 AM 66.9 °F 55.9 °F 68% 29.91 in 10.0 mi ESE 6.9 mph - N/A   Partly Cloudy
11:52 AM 69.1 °F 55.9 °F 63% 29.90 in 10.0 mi SSE 5.8 mph - N/A   Clear
12:52 PM 72.0 °F 57.0 °F 59% 29.89 in 10.0 mi Variable 4.6 mph - N/A   Clear
1:52 PM 73.9 °F 55.0 °F 52% 29.88 in 10.0 mi Calm Calm - N/A   Clear
2:52 PM 73.9 °F 53.1 °F 48% 29.87 in 10.0 mi SW 3.5 mph - N/A   Clear
3:52 PM 75.0 °F 54.0 °F 48% 29.87 in 10.0 mi SE 5.8 mph - N/A   Scattered Clouds
4:52 PM 75.0 °F 54.0 °F 48% 29.87 in 10.0 mi SE 6.9 mph - N/A   Clear
5:52 PM 70.0 °F 54.0 °F 57% 29.86 in 10.0 mi SE 4.6 mph - N/A   Clear
6:52 PM 64.9 °F 54.0 °F 68% 29.88 in 10.0 mi ESE 4.6 mph - N/A   Clear
7:52 PM 62.1 °F 55.0 °F 78% 29.88 in 10.0 mi SE 5.8 mph - N/A   Clear
8:52 PM 62.1 °F 55.0 °F 78% 29.88 in 10.0 mi SE 5.8 mph - N/A   Clear
9:52 PM 61.0 °F 55.0 °F 81% 29.90 in 10.0 mi SE 4.6 mph - N/A   Clear
10:52 PM 57.9 °F 54.0 °F 87% 29.89 in 10.0 mi SE 4.6 mph - N/A   Clear
11:52 PM 57.9 °F 54.0 °F 87% 29.88 in 10.0 mi SE 4.6 mph - N/A   Clear